星链-31884 (STARLINK-31884 )

导读

STARLINK-31884是美国SpaceX公司星链(Starlink)星座的组网卫星,于2024年5月6日发射入轨。作为低轨宽带通信卫星,它采用平板设计与氪工质霍尔推进器,搭载Ku/Ka波段通信载荷,具备自主避撞能力,服务全球宽带互联网接入。卫星设计寿命5-7年,退役后将主动离轨坠入大气层焚毁,是星链大规模组网的重要组成单元,支撑星座全球覆盖的建设目标。

Basic Information
目录编号:
59676
目录名称:
STARLINK-31884
国际标识:
2024-084Y
轨道中心:
EARTH
卫星名称:
星链-31884
卫星全名:
星链-31884 (STARLINK-31884 )
卫星状态:
在轨 (已飞行858 天)
发射日期:
2024-05-06 UTC
国别 :
美国 (US)
星等 :
--
This satellite is enrolled in the Space Conjunction Data Service (SCDS) and the current flight risk assessment level is: High Risk
Orbit Information
数据来源 国际轨道数据
星历时间: 2026-09-09T05:40:30+0800
2天前
查看轨道信息
半长轴: 6861.064km
偏心率: 0.0000796
轨道倾角: 43.001°
近地点辐角 295.746°
升交点赤经 87.085°
平近点角 64.331°
近地点: 482.38km
远地点: 483.474km
周期: 94.264分钟
每日圈数: 15.27621
Detailed Information
固有亮度:
5
最大亮度:
1.5
卫星平台:
Starlink v2.0 mini
覆盖范围:
全球
运营商:
太空探索技术公司
运营商所在国:
美国
制造商(研发单位):
太空探索技术公司
制造商所在国:
美国
使用方式:
暂无
Satellite Introduction
星链(Starlink)计划是由太空探索技术公司(SpaceX)提出的一个巨型低轨卫星互联网星座项目,计划在2019年至2024年间在太空搭建由约1.2万颗卫星组成的“星链”网络,其中1584颗将部署在地球上空550千米处的近地轨道,并从2020年开始工作。该卫星仍在工作。
2D Orbit Map
3D Orbit Map
Orbit Altitude Analysis Chart
Orbit Inclination Analysis Chart
Orbit Comprehensive Analysis Chart
View Comprehensive Chart
Conjunction Data List
Event ID Objects TCA Miss Dist (km) Collision Risk Probability Collision Risk Index (CRI) Action
CDM_260911-051705-967606-793922
2026-09-11T
05:17:24+0000
0.256 km
中距离
5.33612E-4 高风险 0.9
CDM_260913-104105-629205-967621
2026-09-13T
10:41:32+0000
0.316 km
远距离
4.038484E-4 高风险 0.87
CDM_260911-192505-639305-967623
2026-09-11T
19:25:57+0000
0.535 km
远距离
1.394087E-4 高风险 0.78
CDM_260911-232005-967606-793921
2026-09-11T
23:20:09+0000
0.633 km
远距离
8.851294E-5 中风险 0.74
CDM_260911-214405-967605-973822
2026-09-11T
21:44:47+0000
0.760 km
远距离
5.060486E-5 中风险 0.69
CDM_260912-084605-639305-967622
2026-09-12T
08:46:14+0000
0.833 km
远距离
3.865059E-5 中风险 0.67
CDM_260913-233205-967606-358521
2026-09-13T
23:32:12+0000
0.775 km
远距离
3.66287E-5 中风险 0.66
CDM_260913-102705-614805-967621
2026-09-13T
10:27:13+0000
0.838 km
远距离
2.583664E-5 中风险 0.63
CDM_260914-052205-773205-967621
2026-09-14T
05:22:56+0000
1.077 km
极远距离
1.457951E-5 中风险 0.58
CDM_260911-201105-639505-967624
2026-09-11T
20:11:17+0000
1.131 km
极远距离
1.337817E-5 中风险 0.58
Miss Distance Evolution Trend with All Objects
Collision Probability Evolution Trend with All Objects